Tracking 33744 objects as of 13-Apr-2026
HD Live streaming from Space Station
objects crossing your sky now

STARLINK-36266

Track STARLINK-36266 now!
10-day predictions
STARLINK-36266 is classified as:


NORAD ID: 67984
Int'l Code: 2026-038Z
Perigee: 471.3 km
Apogee: 474.2 km
Inclination: 97.3 °
Period: 93.9 minutes
Semi major axis: 6843 km
RCS: Unknown
Launch date: February 25, 2026
Source: United States (US)
Launch site: AIR FORCE WESTERN TEST RANGE (AFWTR)
Your satellite tracking list
Your tracking list is empty




NASA's NSSDC Master Catalog

Two Line Element Set (TLE):
1 67984U 26038Z   26102.94234632  .00022799  00000-0  70703-3 0  9996
2 67984  97.2841 113.6477 0002110  86.6295 273.5189 15.33415020  8496
Source of the keplerian elements: AFSPC